Regional Weather Roundup
Issued by NWS Sioux Falls, SD

Home | Current Version | Previous Version | Text Only | Print | Product List | Glossary Off
Versions: 1 2 3 4 5 6 7 8 9 10 11 12 13 14 15 16 17 18 19 20 21 22 23 24 25 26 27 28 29 30 31 32 33 34 35 36 37 38 39 40 41 42 43 44 45 46 47 48 49 50

293
ASUS43 KFSD 110810
RWRFSD

WEATHER ROUNDUP FOR SE SOUTH DAKOTA/SW MINNESOTA/NW IOWA
NATIONAL WEATHER SERVICE SIOUX FALLS SD
200 AM CST THU FEB 11 2016

NOTE: "FAIR" INDICATES FEW OR NO CLOUDS BELOW 12,000 FEET WITH NO
SIGNIFICANT WEATHER AND OR OBSTRUCTIONS TO VISIBILITY.


SDZ038>040-050-052>070-110900-
SOUTHEAST SOUTH DAKOTA

CITY           SKY/WX    TMP DP  RH WIND       PRES   REMARKS
BROOKINGS      CLOUDY    11   6  81 E6        30.20F WCI   1
CHAMBERLAIN    CLOUDY    22  19  89 CALM      30.21R
HURON          CLOUDY    15  10  80 SE5       30.23S WCI   8
MADISON        CLOUDY    10   9  92 SE7       30.20F WCI   0
MITCHELL       CLOUDY    18  12  77 E7        30.24F WCI   9
SIOUX FALLS    CLOUDY    13   4  67 E7        30.24F WCI   3
WINNER         CLOUDY    27  21  78 N5        30.18S WCI  22
YANKTON        CLOUDY    16  10  79 NE8       30.24F WCI   5
$$

MNZ071-072-080-081-089-090-097-098-110900-
SOUTHWEST MINNESOTA

CITY           SKY/WX    TMP DP  RH WIND       PRES   REMARKS
FAIRMONT       CLOUDY     3  -6  66 CALM      30.25R
JACKSON        CLOUDY     3  -4  72 N3        30.23F
LUVERNE        CLOUDY    14   7  73 CALM      30.25S
MARSHALL       CLOUDY     6   3  87 CALM      30.27S
MONTEVIDEO     CLOUDY     3  -2  78 CALM      30.29S
PIPESTONE      CLOUDY    12   3  67 CALM      30.21F
REDWOOD FALLS  CLOUDY     7   2  80 CALM      30.28S
TRACY          PTCLDY     7   2  82 CALM      30.25R
WINDOM         CLOUDY     0  -2  92 CALM      30.23F
WORTHINGTON    CLOUDY    10   3  72 N5        30.23S WCI   2
$$

IAZ001>003-012>014-020>022-031-032-NEZ013-014-SDZ071-110900-
NORTHWEST IOWA

CITY           SKY/WX    TMP DP  RH WIND       PRES   REMARKS
CHEROKEE       CLOUDY    13   5  70 NE7       30.25S WCI   3
DENISON        CLOUDY    12   5  73 NE12      30.22R WCI  -2
ESTHERVILLE    CLOUDY     6   1  80 N8        30.23S WCI  -7
LE MARS        CLOUDY    16  10  79 NE7       30.27S WCI   6
ORANGE CITY    CLOUDY    12   9  85 E5        30.24R WCI   4
SHELDON        CLOUDY    12   7  79 NE9       30.23F WCI   0
SIOUX CITY     CLOUDY    18   9  68 NE7       30.27R WCI   9
SPENCER        CLOUDY    12   3  67 NE5       30.25S WCI   4
STORM LAKE     CLOUDY    12   7  79 NE14      30.22F WCI  -3
$$

ABBREVIATIONS USED IN REMARKS
   TC - TEMPERATURE IN CELSIUS
  WCI - WIND CHILL INDEX
   HX - HEAT INDEX
  VSB - VISIBILITY





USA.gov is the U.S. government's official web portal to all federal, state and local government web resources and services.